Willimantic, CT

8:53 PM EDT on April 21, 2018 (GMT -0400)
Windham

Weather History for KIJD - May, 2013

Change the Weather History Date:

Sunday, May 26, 2013

  Actual Average Record
Temperature  
Mean Temperature 51 °F -  
Max Temperature 59 °F 69 °F 91 °F (2016)
Min Temperature 43 °F 47 °F 30 °F (1956)
Degree Days  
Heating Degree Days 14    
Growing Degree Days 1 (Base 50)    
Moisture  
Dew Point 40 °F    
Average Humidity 68    
Maximum Humidity 89    
Minimum Humidity 49    
Precipitation  
Precipitation 0.03 in - - ()
Sea Level Pressure  
Sea Level Pressure 29.94 in    
Wind  
Wind Speed 10 mph (WNW)    
Max Wind Speed 20 mph    
Max Gust Speed 30 mph    
Visibility 10 miles    
Events Rain    
Averages and records for this station are not official NWS values.
T = Trace of Precipitation, MM = Missing Value Source: NWS Daily Summary

Daily Weather History Graph

Daily Weather History Graph

Search for Another Location

Airport or City:

Astronomy

May. 26, 2013 Rise Set
Actual Time 5:19 AM EDT 8:12 PM EDT
Civil Twilight 4:46 AM EDT 8:45 PM EDT
Nautical Twilight 4:05 AM EDT 9:27 PM EDT
Astronomical Twilight 3:17 AM EDT 10:15 PM EDT
Moon 9:56 PM EDT (5/26) 6:45 AM EDT (5/26)
Length of Visible Light 15h 58m
Length of Day
14h 52m
Waning Gibbous, 97% of the Moon is Illuminated
May 26
Waning Gibbous
May 31
Last Quarter
Jun 8
New
Jun 16
First Quarter
Jun 23
Full

Hourly Weather History & Observations

Time (EDT) Temp. Windchill Dew Point Humidity Pressure Visibility Wind Dir Wind Speed Gust Speed Precip Events Conditions
12:52 AM 43.0 °F 38.2 °F 37.9 °F 82% 29.81 in 10.0 mi WNW 8.1 mph - N/A   Overcast
1:52 AM 44.1 °F 39.0 °F 37.9 °F 79% 29.81 in 10.0 mi WNW 9.2 mph - 0.00 in   Overcast
2:44 AM 44.6 °F 40.2 °F 37.4 °F 76% 29.81 in 10.0 mi West 8.1 mph - 0.00 in   Mostly Cloudy
2:52 AM 44.1 °F 38.6 °F 37.9 °F 79% 29.82 in 10.0 mi WNW 10.4 mph 18.4 mph 0.00 in   Overcast
3:52 AM 44.1 °F 38.6 °F 39.0 °F 82% 29.81 in 10.0 mi WNW 10.4 mph - 0.01 in Rain Light Rain
4:52 AM 44.1 °F 40.1 °F 39.0 °F 82% 29.81 in 10.0 mi Variable 6.9 mph - 0.01 in   Overcast
5:52 AM 44.1 °F 40.8 °F 39.0 °F 82% 29.83 in 10.0 mi West 5.8 mph - N/A   Mostly Cloudy
6:52 AM 46.0 °F 42.5 °F 39.0 °F 76% 29.85 in 10.0 mi WNW 6.9 mph - N/A   Overcast
7:52 AM 48.9 °F - 39.9 °F 71% 29.86 in 10.0 mi West 12.7 mph 19.6 mph N/A   Partly Cloudy
8:52 AM 51.1 °F - 39.0 °F 63% 29.88 in 10.0 mi WNW 13.8 mph 24.2 mph N/A   Overcast
9:52 AM 52.0 °F - 37.0 °F 57% 29.89 in 10.0 mi NW 18.4 mph 27.6 mph N/A   Overcast
10:52 AM 53.1 °F - 37.9 °F 57% 29.90 in 10.0 mi WNW 12.7 mph 29.9 mph N/A   Overcast
11:52 AM 57.0 °F - 39.9 °F 53% 29.91 in 10.0 mi NW 19.6 mph 29.9 mph 0.00 in   Mostly Cloudy
12:52 PM 55.0 °F - 45.0 °F 69% 29.92 in 10.0 mi Variable 3.5 mph - 0.00 in   Mostly Cloudy
1:52 PM 55.9 °F - 41.0 °F 57% 29.94 in 10.0 mi NW 13.8 mph 26.5 mph 0.01 in Rain Light Rain
2:52 PM 57.0 °F - 39.0 °F 51% 29.95 in 10.0 mi WNW 18.4 mph 28.8 mph 0.00 in   Mostly Cloudy
3:52 PM 59.0 °F - 39.9 °F 49% 29.97 in 10.0 mi WNW 15.0 mph 29.9 mph N/A   Mostly Cloudy
4:52 PM 57.0 °F - 41.0 °F 55% 29.99 in 10.0 mi NNW 16.1 mph 23.0 mph N/A   Overcast
5:52 PM 55.9 °F - 43.0 °F 62% 30.03 in 10.0 mi NW 12.7 mph 23.0 mph 0.00 in   Overcast
6:52 PM 54.0 °F - 41.0 °F 62% 30.06 in 10.0 mi WNW 9.2 mph 24.2 mph N/A   Mostly Cloudy
7:52 PM 53.1 °F - 39.9 °F 61% 30.08 in 10.0 mi Variable 6.9 mph - N/A   Scattered Clouds
8:52 PM 52.0 °F - 39.0 °F 61% 30.11 in 10.0 mi NW 8.1 mph - N/A   Clear
9:52 PM 50.0 °F - 39.9 °F 68% 30.12 in 10.0 mi Calm Calm - N/A   Clear
10:52 PM 45.0 °F - 41.0 °F 86% 30.14 in 10.0 mi Calm Calm - N/A   Clear
11:52 PM 43.0 °F - 39.9 °F 89% 30.16 in 10.0 mi Calm Calm - N/A   Clear